Time,TemperatureF,DewpointF,PressureIn,WindDirection,WindDirectionDegrees,WindSpeedMPH,WindSpeedGustMPH,Humidity,HourlyPrecipIn,Conditions,Clouds,dailyrainin,SoftwareType,DateUTC
2013-03-23 00:03:00,32.0,27.0,-100.00,NNW,345,2.0,4.0,79,-99.99,,,-99.99,,2013-03-23 04:03:00,
2013-03-23 00:12:00,32.0,27.0,-100.00,NNW,335,2.0,4.0,80,-99.99,,,-99.99,,2013-03-23 04:12:00,
2013-03-23 00:23:00,31.0,27.0,-100.00,NW,305,1.0,2.0,81,-99.99,,,-99.99,,2013-03-23 04:23:00,
2013-03-23 00:32:00,31.0,26.0,-100.00,NNW,345,2.0,3.0,82,-99.99,,,-99.99,,2013-03-23 04:32:00,
2013-03-23 00:43:00,31.0,27.0,-100.00,WNW,295,0.0,3.0,82,-99.99,,,-99.99,,2013-03-23 04:43:00,
2013-03-23 00:53:00,31.0,27.0,-100.00,WNW,295,0.0,3.0,82,-99.99,,,-99.99,,2013-03-23 04:53:00,
2013-03-23 01:02:00,31.0,27.0,-100.00,WNW,295,0.0,3.0,82,-99.99,,,-99.99,,2013-03-23 05:02:00,
2013-03-23 01:12:00,30.0,26.0,-100.00,NW,305,2.0,3.0,84,-99.99,,,-99.99,,2013-03-23 05:12:00,
2013-03-23 01:22:00,30.0,26.0,-100.00,NNW,330,1.0,6.0,85,-99.99,,,-99.99,,2013-03-23 05:22:00,
2013-03-23 01:32:00,30.0,26.0,-100.00,NNW,330,2.0,3.0,85,-99.99,,,-99.99,,2013-03-23 05:32:00,
2013-03-23 01:42:00,30.0,26.0,-100.00,WNW,300,2.0,3.0,86,-99.99,,,-99.99,,2013-03-23 05:42:00,
2013-03-23 01:52:00,30.0,26.0,-100.00,NW,320,2.0,4.0,86,-99.99,,,-99.99,,2013-03-23 05:52:00,
2013-03-23 02:02:00,30.0,26.0,-100.00,NNW,330,2.0,4.0,86,-99.99,,,-99.99,,2013-03-23 06:02:00,
2013-03-23 02:12:00,29.0,26.0,-100.00,NW,305,2.0,4.0,86,-99.99,,,-99.99,,2013-03-23 06:12:00,
2013-03-23 02:22:00,29.0,26.0,-100.00,WNW,285,2.0,3.0,87,-99.99,,,-99.99,,2013-03-23 06:22:00,
2013-03-23 02:32:00,29.0,26.0,-100.00,WNW,285,2.0,3.0,87,-99.99,,,-99.99,,2013-03-23 06:32:00,
2013-03-23 02:42:00,29.0,26.0,-100.00,WNW,285,2.0,2.0,87,-99.99,,,-99.99,,2013-03-23 06:42:00,
2013-03-23 02:52:00,28.0,25.0,-100.00,WNW,295,1.0,3.0,87,-99.99,,,-99.99,,2013-03-23 06:52:00,
2013-03-23 03:02:00,28.0,25.0,-100.00,NW,305,2.0,3.0,88,-99.99,,,-99.99,,2013-03-23 07:02:00,
2013-03-23 03:12:00,28.0,25.0,-100.00,West,280,1.0,2.0,88,-99.99,,,-99.99,,2013-03-23 07:12:00,
2013-03-23 03:22:00,28.0,25.0,-100.00,NW,310,1.0,4.0,88,-99.99,,,-99.99,,2013-03-23 07:22:00,
2013-03-23 03:32:00,28.0,25.0,-100.00,West,280,2.0,3.0,89,-99.99,,,-99.99,,2013-03-23 07:32:00,
2013-03-23 03:42:00,28.0,26.0,-100.00,WNW,285,3.0,4.0,89,-99.99,,,-99.99,,2013-03-23 07:42:00,
2013-03-23 03:52:00,28.0,25.0,-100.00,West,280,2.0,4.0,89,-99.99,,,-99.99,,2013-03-23 07:52:00,
2013-03-23 04:02:00,28.0,25.0,-100.00,WNW,295,3.0,4.0,90,-99.99,,,-99.99,,2013-03-23 08:02:00,
2013-03-23 04:13:00,28.0,25.0,-100.00,NW,305,2.0,4.0,90,-99.99,,,-99.99,,2013-03-23 08:13:00,
2013-03-23 04:22:00,28.0,25.0,-100.00,WNW,285,2.0,4.0,91,-99.99,,,-99.99,,2013-03-23 08:22:00,
2013-03-23 04:32:00,27.0,25.0,-100.00,WNW,300,2.0,4.0,91,-99.99,,,-99.99,,2013-03-23 08:32:00,
2013-03-23 04:42:00,27.0,25.0,-100.00,NW,325,2.0,4.0,91,-99.99,,,-99.99,,2013-03-23 08:42:00,
2013-03-23 04:52:00,27.0,25.0,-100.00,West,280,2.0,4.0,92,-99.99,,,-99.99,,2013-03-23 08:52:00,
2013-03-23 05:02:00,27.0,25.0,-100.00,West,280,2.0,4.0,92,-99.99,,,-99.99,,2013-03-23 09:02:00,
2013-03-23 05:12:00,26.0,25.0,-100.00,NNW,345,1.0,2.0,92,-99.99,,,-99.99,,2013-03-23 09:12:00,
2013-03-23 05:22:00,26.0,25.0,-100.00,NNW,345,1.0,2.0,92,-99.99,,,-99.99,,2013-03-23 09:22:00,
2013-03-23 05:33:00,26.0,25.0,-100.00,WNW,285,2.0,4.0,93,-99.99,,,-99.99,,2013-03-23 09:33:00,
2013-03-23 05:43:00,26.0,25.0,-100.00,NW,305,1.0,3.0,93,-99.99,,,-99.99,,2013-03-23 09:43:00,
2013-03-23 05:53:00,26.0,25.0,-100.00,NW,315,1.0,3.0,94,-99.99,,,-99.99,,2013-03-23 09:53:00,
2013-03-23 06:03:00,26.0,25.0,-100.00,WNW,295,1.0,2.0,94,-99.99,,,-99.99,,2013-03-23 10:03:00,
2013-03-23 06:13:00,26.0,25.0,-100.00,WNW,295,1.0,2.0,94,-99.99,,,-99.99,,2013-03-23 10:13:00,
2013-03-23 06:23:00,26.0,25.0,-100.00,NNW,330,1.0,3.0,94,-99.99,,,-99.99,,2013-03-23 10:23:00,
2013-03-23 06:34:00,26.0,25.0,-100.00,West,280,2.0,3.0,94,-99.99,,,-99.99,,2013-03-23 10:34:00,
2013-03-23 06:42:00,26.0,24.0,-100.00,WNW,300,1.0,4.0,95,-99.99,,,-99.99,,2013-03-23 10:42:00,
2013-03-23 06:52:00,25.0,24.0,-100.00,NW,315,1.0,2.0,95,-99.99,,,-99.99,,2013-03-23 10:52:00,
2013-03-23 07:03:00,25.0,24.0,-100.00,NW,315,1.0,2.0,95,-99.99,,,-99.99,,2013-03-23 11:03:00,
2013-03-23 07:12:00,25.0,24.0,-100.00,North,0,1.0,3.0,95,-99.99,,,-99.99,,2013-03-23 11:12:00,
2013-03-23 07:22:00,25.0,24.0,-100.00,North,0,1.0,3.0,95,-99.99,,,-99.99,,2013-03-23 11:22:00,
2013-03-23 07:32:00,25.0,24.0,-100.00,NW,320,1.0,2.0,96,-99.99,,,-99.99,,2013-03-23 11:32:00,
2013-03-23 07:42:00,25.0,24.0,-100.00,NNW,330,2.0,4.0,96,-99.99,,,-99.99,,2013-03-23 11:42:00,
2013-03-23 07:51:00,25.0,24.0,-100.00,NW,305,1.0,3.0,96,-99.99,,,-99.99,,2013-03-23 11:51:00,
2013-03-23 08:02:00,25.0,24.0,-100.00,North,355,2.0,4.0,96,-99.99,,,-99.99,,2013-03-23 12:02:00,
2013-03-23 08:13:00,25.0,24.0,-100.00,North,355,2.0,4.0,96,-99.99,,,-99.99,,2013-03-23 12:13:00,
2013-03-23 08:22:00,25.0,25.0,-100.00,North,0,2.0,4.0,96,-99.99,,,-99.99,,2013-03-23 12:22:00,
2013-03-23 08:33:00,26.0,25.0,-100.00,North,0,2.0,6.0,96,-99.99,,,-99.99,,2013-03-23 12:33:00,
2013-03-23 08:42:00,26.0,26.0,-100.00,ENE,75,1.0,4.0,96,-99.99,,,-99.99,,2013-03-23 12:42:00,
2013-03-23 08:53:00,27.0,26.0,-100.00,North,0,2.0,4.0,96,-99.99,,,-99.99,,2013-03-23 12:53:00,
2013-03-23 09:03:00,27.0,26.0,-100.00,North,0,2.0,4.0,96,-99.99,,,-99.99,,2013-03-23 13:03:00,
2013-03-23 09:12:00,27.0,26.0,-100.00,North,0,2.0,4.0,96,-99.99,,,-99.99,,2013-03-23 13:12:00,
2013-03-23 09:23:00,28.0,27.0,-100.00,North,5,2.0,4.0,96,-99.99,,,-99.99,,2013-03-23 13:23:00,
2013-03-23 09:33:00,29.0,28.0,-100.00,North,0,3.0,4.0,96,-99.99,,,-99.99,,2013-03-23 13:33:00,
2013-03-23 09:43:00,29.0,29.0,-100.00,NNW,340,2.0,4.0,96,-99.99,,,-99.99,,2013-03-23 13:43:00,
2013-03-23 09:53:00,30.0,29.0,-100.00,NW,325,2.0,4.0,96,-99.99,,,-99.99,,2013-03-23 13:53:00,
2013-03-23 10:03:00,31.0,30.0,-100.00,North,5,1.0,4.0,96,-99.99,,,-99.99,,2013-03-23 14:03:00,
2013-03-23 10:12:00,31.0,30.0,-100.00,North,5,1.0,4.0,96,-99.99,,,-99.99,,2013-03-23 14:12:00,
2013-03-23 10:22:00,32.0,31.0,-100.00,North,5,4.0,8.0,93,-99.99,,,-99.99,,2013-03-23 14:22:00,
2013-03-23 10:32:00,33.0,31.0,-100.00,NE,35,5.0,8.0,91,-99.99,,,-99.99,,2013-03-23 14:32:00,
2013-03-23 10:43:00,33.0,31.0,-100.00,NE,35,5.0,8.0,91,-99.99,,,-99.99,,2013-03-23 14:43:00,
2013-03-23 10:53:00,34.0,30.0,-100.00,NE,35,6.0,9.0,84,-99.99,,,-99.99,,2013-03-23 14:53:00,
2013-03-23 11:03:00,35.0,29.0,-100.00,NE,35,6.0,9.0,81,-99.99,,,-99.99,,2013-03-23 15:03:00,
2013-03-23 11:12:00,34.0,28.0,-100.00,NNE,25,6.0,9.0,79,-99.99,,,-99.99,,2013-03-23 15:12:00,
2013-03-23 11:22:00,35.0,29.0,-100.00,ENE,70,6.0,7.0,77,-99.99,,,-99.99,,2013-03-23 15:22:00,
2013-03-23 11:33:00,36.0,29.0,-100.00,NE,35,6.0,10.0,76,-99.99,,,-99.99,,2013-03-23 15:33:00,
2013-03-23 11:43:00,37.0,29.0,-100.00,NNE,20,3.0,9.0,74,-99.99,,,-99.99,,2013-03-23 15:43:00,
2013-03-23 11:52:00,36.0,28.0,-100.00,North,355,4.0,9.0,72,-99.99,,,-99.99,,2013-03-23 15:52:00,
2013-03-23 12:03:00,36.0,28.0,-100.00,North,355,4.0,9.0,72,-99.99,,,-99.99,,2013-03-23 16:03:00,
2013-03-23 12:13:00,38.0,29.0,-100.00,ENE,65,3.0,9.0,69,-99.99,,,-99.99,,2013-03-23 16:13:00,
2013-03-23 12:23:00,37.0,27.0,-100.00,NE,35,3.0,7.0,68,-99.99,,,-99.99,,2013-03-23 16:23:00,
2013-03-23 12:33:00,36.0,26.0,-100.00,NE,50,0.0,6.0,67,-99.99,,,-99.99,,2013-03-23 16:33:00,
2013-03-23 12:43:00,36.0,26.0,-100.00,NNW,330,4.0,6.0,67,-99.99,,,-99.99,,2013-03-23 16:43:00,
2013-03-23 12:53:00,36.0,26.0,-100.00,West,265,1.0,6.0,67,-99.99,,,-99.99,,2013-03-23 16:53:00,
2013-03-23 13:03:00,37.0,27.0,-100.00,SW,235,3.0,7.0,66,-99.99,,,-99.99,,2013-03-23 17:03:00,
2013-03-23 13:12:00,37.0,26.0,-100.00,NW,320,4.0,6.0,64,-99.99,,,-99.99,,2013-03-23 17:12:00,
2013-03-23 13:22:00,38.0,27.0,-100.00,ESE,110,3.0,7.0,64,-99.99,,,-99.99,,2013-03-23 17:22:00,
2013-03-23 13:33:00,37.0,26.0,-100.00,North,350,4.0,9.0,63,-99.99,,,-99.99,,2013-03-23 17:33:00,
2013-03-23 13:42:00,39.0,28.0,-100.00,East,95,2.0,6.0,63,-99.99,,,-99.99,,2013-03-23 17:42:00,
2013-03-23 13:52:00,39.0,27.0,-100.00,NE,50,1.0,4.0,60,-99.99,,,-99.99,,2013-03-23 17:52:00,
2013-03-23 14:03:00,39.0,27.0,-100.00,NE,50,1.0,4.0,60,-99.99,,,-99.99,,2013-03-23 18:03:00,
2013-03-23 14:12:00,39.0,27.0,-100.00,NE,50,1.0,4.0,60,-99.99,,,-99.99,,2013-03-23 18:12:00,
2013-03-23 14:22:00,39.0,26.0,-100.00,NNE,15,5.0,8.0,60,-99.99,,,-99.99,,2013-03-23 18:22:00,
2013-03-23 14:32:00,38.0,26.0,-100.00,ENE,70,4.0,9.0,60,-99.99,,,-99.99,,2013-03-23 18:32:00,
2013-03-23 14:43:00,38.0,26.0,-100.00,NNW,335,4.0,11.0,62,-99.99,,,-99.99,,2013-03-23 18:43:00,
2013-03-23 14:53:00,38.0,26.0,-100.00,NE,40,5.0,9.0,62,-99.99,,,-99.99,,2013-03-23 18:53:00,
2013-03-23 15:03:00,38.0,26.0,-100.00,NNE,20,4.0,9.0,62,-99.99,,,-99.99,,2013-03-23 19:03:00,
2013-03-23 15:13:00,40.0,27.0,-100.00,SE,135,1.0,4.0,60,-99.99,,,-99.99,,2013-03-23 19:13:00,
2013-03-23 15:23:00,40.0,27.0,-100.00,NNE,20,6.0,9.0,58,-99.99,,,-99.99,,2013-03-23 19:23:00,
2013-03-23 15:32:00,41.0,27.0,-100.00,NE,40,4.0,9.0,57,-99.99,,,-99.99,,2013-03-23 19:32:00,
2013-03-23 15:42:00,41.0,26.0,-100.00,North,5,6.0,9.0,55,-99.99,,,-99.99,,2013-03-23 19:42:00,
2013-03-23 15:52:00,39.0,26.0,-100.00,North,350,4.0,7.0,57,-99.99,,,-99.99,,2013-03-23 19:52:00,
2013-03-23 16:03:00,38.0,25.0,-100.00,NW,325,4.0,11.0,59,-99.99,,,-99.99,,2013-03-23 20:03:00,
2013-03-23 16:13:00,38.0,25.0,-100.00,NNW,335,7.0,9.0,60,-99.99,,,-99.99,,2013-03-23 20:13:00,
2013-03-23 16:22:00,39.0,26.0,-100.00,North,5,1.0,7.0,60,-99.99,,,-99.99,,2013-03-23 20:22:00,
2013-03-23 16:32:00,40.0,26.0,-100.00,NNW,340,6.0,9.0,57,-99.99,,,-99.99,,2013-03-23 20:32:00,
2013-03-23 16:42:00,41.0,27.0,-100.00,NNW,345,6.0,14.0,56,-99.99,,,-99.99,,2013-03-23 20:42:00,
2013-03-23 16:52:00,41.0,26.0,-100.00,WNW,290,6.0,10.0,55,-99.99,,,-99.99,,2013-03-23 20:52:00,
2013-03-23 17:02:00,41.0,26.0,-100.00,NNW,340,8.0,9.0,55,-99.99,,,-99.99,,2013-03-23 21:02:00,
2013-03-23 17:12:00,41.0,26.0,-100.00,NNW,345,2.0,8.0,54,-99.99,,,-99.99,,2013-03-23 21:12:00,
2013-03-23 17:22:00,41.0,25.0,-100.00,NNE,15,6.0,10.0,52,-99.99,,,-99.99,,2013-03-23 21:22:00,
2013-03-23 17:33:00,42.0,25.0,-100.00,NNE,25,2.0,6.0,51,-99.99,,,-99.99,,2013-03-23 21:33:00,
2013-03-23 17:43:00,41.0,25.0,-100.00,South,170,1.0,8.0,51,-99.99,,,-99.99,,2013-03-23 21:43:00,
2013-03-23 17:53:00,42.0,25.0,-100.00,North,355,2.0,6.0,50,-99.99,,,-99.99,,2013-03-23 21:53:00,
2013-03-23 18:03:00,41.0,24.0,-100.00,NNE,25,7.0,9.0,51,-99.99,,,-99.99,,2013-03-23 22:03:00,
2013-03-23 18:13:00,41.0,24.0,-100.00,NNE,25,0.0,9.0,51,-99.99,,,-99.99,,2013-03-23 22:13:00,
2013-03-23 18:23:00,41.0,24.0,-100.00,North,5,3.0,6.0,50,-99.99,,,-99.99,,2013-03-23 22:23:00,
2013-03-23 18:33:00,41.0,24.0,-100.00,North,10,4.0,7.0,49,-99.99,,,-99.99,,2013-03-23 22:33:00,
2013-03-23 18:42:00,41.0,24.0,-100.00,NNE,20,6.0,7.0,50,-99.99,,,-99.99,,2013-03-23 22:42:00,
2013-03-23 19:02:00,41.0,24.0,-100.00,NE,55,6.0,8.0,50,-99.99,,,-99.99,,2013-03-23 23:02:00,
2013-03-23 19:13:00,41.0,24.0,-100.00,NNE,20,5.0,11.0,50,-99.99,,,-99.99,,2013-03-23 23:13:00,
2013-03-23 19:23:00,40.0,24.0,-100.00,NE,55,4.0,9.0,51,-99.99,,,-99.99,,2013-03-23 23:23:00,
2013-03-23 19:33:00,40.0,24.0,-100.00,NE,55,4.0,9.0,51,-99.99,,,-99.99,,2013-03-23 23:33:00,
2013-03-23 19:43:00,39.0,26.0,-100.00,ENE,60,9.0,12.0,59,-99.99,,,-99.99,,2013-03-23 23:43:00,
2013-03-23 19:52:00,37.0,27.0,-100.00,ENE,75,5.0,10.0,65,-99.99,,,-99.99,,2013-03-23 23:52:00,
2013-03-23 20:02:00,37.0,26.0,-100.00,East,95,4.0,8.0,65,-99.99,,,-99.99,,2013-03-24 00:02:00,
2013-03-23 20:13:00,36.0,26.0,-100.00,ENE,65,5.0,8.0,66,-99.99,,,-99.99,,2013-03-24 00:13:00,
2013-03-23 20:22:00,36.0,26.0,-100.00,ENE,60,4.0,7.0,66,-99.99,,,-99.99,,2013-03-24 00:22:00,
2013-03-23 20:33:00,35.0,26.0,-100.00,East,85,4.0,6.0,67,-99.99,,,-99.99,,2013-03-24 00:33:00,
2013-03-23 20:42:00,35.0,26.0,-100.00,East,85,4.0,6.0,67,-99.99,,,-99.99,,2013-03-24 00:42:00,
2013-03-23 20:52:00,35.0,26.0,-100.00,ESE,110,1.0,4.0,69,-99.99,,,-99.99,,2013-03-24 00:52:00,
2013-03-23 21:02:00,35.0,26.0,-100.00,SSE,150,1.0,3.0,69,-99.99,,,-99.99,,2013-03-24 01:02:00,
2013-03-23 21:12:00,35.0,26.0,-100.00,South,185,1.0,3.0,71,-99.99,,,-99.99,,2013-03-24 01:12:00,
2013-03-23 21:22:00,35.0,26.0,-100.00,South,170,0.0,3.0,71,-99.99,,,-99.99,,2013-03-24 01:22:00,
2013-03-23 21:33:00,34.0,26.0,-100.00,SE,130,0.0,2.0,72,-99.99,,,-99.99,,2013-03-24 01:33:00,
2013-03-23 21:42:00,34.0,27.0,-100.00,South,170,1.0,4.0,74,-99.99,,,-99.99,,2013-03-24 01:42:00,
2013-03-23 21:52:00,33.0,26.0,-100.00,NNE,25,2.0,3.0,75,-99.99,,,-99.99,,2013-03-24 01:52:00,
2013-03-23 22:03:00,33.0,27.0,-100.00,NE,40,3.0,6.0,76,-99.99,,,-99.99,,2013-03-24 02:03:00,
2013-03-23 22:12:00,33.0,27.0,-100.00,NE,50,3.0,5.0,77,-99.99,,,-99.99,,2013-03-24 02:12:00,
2013-03-23 22:22:00,33.0,27.0,-100.00,ENE,60,2.0,5.0,77,-99.99,,,-99.99,,2013-03-24 02:22:00,
2013-03-23 22:32:00,33.0,27.0,-100.00,NE,35,3.0,4.0,78,-99.99,,,-99.99,,2013-03-24 02:32:00,
2013-03-23 22:42:00,33.0,27.0,-100.00,NNE,20,2.0,4.0,79,-99.99,,,-99.99,,2013-03-24 02:42:00,
2013-03-23 22:52:00,32.0,27.0,-100.00,NE,50,1.0,6.0,80,-99.99,,,-99.99,,2013-03-24 02:52:00,
2013-03-23 23:02:00,32.0,27.0,-100.00,ESE,110,1.0,2.0,81,-99.99,,,-99.99,,2013-03-24 03:02:00,
2013-03-23 23:12:00,32.0,27.0,-100.00,SE,145,1.0,2.0,82,-99.99,,,-99.99,,2013-03-24 03:12:00,
2013-03-23 23:23:00,32.0,28.0,-100.00,South,185,1.0,3.0,83,-99.99,,,-99.99,,2013-03-24 03:23:00,
2013-03-23 23:33:00,32.0,28.0,-100.00,SSE,165,1.0,2.0,84,-99.99,,,-99.99,,2013-03-24 03:33:00,
2013-03-23 23:42:00,31.0,27.0,-100.00,SSE,160,0.0,1.0,84,-99.99,,,-99.99,,2013-03-24 03:42:00,
2013-03-23 23:53:00,31.0,28.0,-100.00,ENE,65,2.0,3.0,85,-99.99,,,-99.99,,2013-03-24 03:53:00,